Location: Beaver Dam Church
(34.5318°N, 88.9828°W)
Time: 00:23:39
(UTC+00:00)

Helios 1A Rocket - Pass Details

Date: 29 October 2020
Orbit: 563 x 586 km, 98.3° (Epoch: 03 December)

Event Time Altitude Azimuth Distance (km) Brightness Sun altitude
Rises 23:35:05 0° 133° (SE) 2,795 6.1 -6.9°
Reaches altitude 10° 23:37:41 10° 116° (ESE) 1,896 5.1 -7.4°
Maximum altitude 23:40:40 20° 69° (ENE) 1,372 4.2 -8.0°
Drops below altitude 10° 23:43:40 10° 22° (NNE) 1,896 5.2 -8.6°
Sets 23:46:15 0° 6° (N) 2,795 6.3 -9.1°
